STARLINK-33845, 63495

Orbit data source: Space-Track

STARLINK-33845, 63495 is a payload satellite owned by SpaceX/Seattle (US) in LEO that was launched on Mon, 07 Apr 2025 UTC via an FALCON 9 launch vehicle from the Air Force Western Test Range (AFWTR). Payload-class satellites include a variety of spacecraft equipped with specific instruments for various scientific and technological missions. These include communications satellites like Starlink; space stations such as the ISS; scientific satellites like the Hubble; Earth observation satellites from companies like Planet Labs, Umbra, and HawkEye 360; GPS; miniature CubeSats for education and research; and military/defense satellites.

Loading next visibility...
Identifier
63495, 2025-071C
Orbit
LEO
Last TLE update
9 hours ago
Origin
Manufacturer
SpaceX/Seattle
Mission
Operational Commercial Communications
Bus & Motor
STARLINK V2MO, Unknown motor
Mass
575 kg wet, ~530 kg dry
Launch date (UTC)
2025-04-07 (3 months ago)
Launch vehicle
FALCON 9
Launch site
Air Force Western Test Range (AFWTR)
Object type
Payload
Rocket body
Debris
Shape & HBR
Box + 1 Pan, 29 m
Radar Cross Section
41.120 m², Large (>1 m²)

Expand to show TLE details & history

TLE from 9 hours ago
0 STARLINK-33845
1 63495U 25071C   25182.53298210  .00027262  00000-0  68923-3 0  9990
2 63495  53.1573 227.4536 0001186  84.5093 275.6048 15.39613369 14280
Epoch: 2025-07-01T12:47Z
TLE epoch observation values (Epoch: 2025-07-01T12:47:29.653Z)
Latitude
0.00005°
Longitude
115.75301°
Altitude
448.076 km
Speed
7.645 km/s
True Right ascension
15h 09m 48s
True Declination
0° 00' 00"
Sunlit
Object was in full shadow at epoch
Visualization orbit readout
Latitude
-14.45607°
Longitude
102.85783°
Altitude
451.263 km
Speed
7.642 km/s
Apparent Right ascension
17h 11m 47s
Apparent Declination
-40° 58' 43"
Sunlit
Object is in full shadow
Visualization observer readout
Local Sidereal Time
09:44:01
Azimuth
114.691° SE
Elevation
-39.581°
Doppler factor
1
Orbital elements
Apogee altitude
448.319 km
Perigee altitude
446.7 km
Semi-major axis
6,825.647 km
Eccentricity
0.00012
Inclination
53.1573°
RAAN
227.4536°
Arg. of periapsis
84.5093°
True anomaly
Unknown
Mean anomaly
275.6048°
Eccentric anomaly
Unknown
Mean motion
3.84882 °/min
Orbital period
93.54 mins
BSTAR
0.00068923
Loading maneuver chart data...
Loading SW <> Apogee altitude chart data...
Loading historical data...
Loading historical data...
Loading historical data...
Loading historical data...
Loading historical data...
Loading historical data...
Loading historical data...

STARLINK-33845 Visibility forecast

Observer location: undefined°, undefined°

Span
Click to sort rows by Start time (UTC) header in descending order
Start Az.
Max El. time (UTC)
Max El. Az.
Max El.
End time (UTC)
End Az.
5 mins2025-07-02 06:08:39.654Z254.009° W2025-07-02 06:10:39.654Z348.858° N38.898°2025-07-02 06:13:39.654Z42.627° NE
5 mins2025-07-02 12:40:39.654Z303.753° NW2025-07-02 12:42:39.654Z255.214° W43.179°2025-07-02 12:45:39.654Z138.751° SSE
|